Flag for Vietnam Weather past 2 weeks in Ho Chi Minh, Vietnam

Now
84 °F

Scattered clouds.


Feels Like: 94 °F
Forecast: 78 / 91 °F
Wind: 12 mph from West

Location: Ho Chi Minh

Current Time: Jul 2, 2015 at 8:46:52 AM

Latest Report: Jul 2, 2015 at 8:00 AM


Visibility: N/A

Pressure: 29.83 "Hg

Humidity: 79%

Dew point: 77 °F

Location of Ho Chi MinhLocation

Historic Weather in Ho Chi Minh — Graph

°F

Ho Chi Minh temperature yesterday

Maximum temperature yesterday: 93 °F (at 3:00 PM)
Minimum temperature yesterday: 75 °F (at 6:30 PM)
Average temperature yesterday: 84 °F

Past Weeks' High & Low Weather Summary

 TemperatureHumidityPressure
High95 °F (Jun 30, 3:00 PM)94% (Jun 20, 6:30 AM)29.95 "Hg (Jun 20, 6:30 AM)
Low75 °F (Jun 19, 8:00 PM)47% (Jun 28, 4:00 PM)29.68 "Hg (Jun 17, 2:00 PM)
Average82 °F77%29.78 "Hg
* Reported Jun 17 7:00 AM — Jul 2 7:30 AM, Ho Chi Minh, Weather by CustomWeather, © 2015

Note: Actual official high and low records may vary slightly from our data, if they occured in-between our weather recording intervals... More about our weather records

Advertising

Ho Chi Minh weather history for previous 24 hours

 ConditionsComfort  
Time TempWeatherWind HumidityBarometerVisibility
7:30 AM
Thu, Jul 2
82 °FScattered clouds.13 mph84%29.80 "HgN/A
7:00 AM82 °FScattered clouds.8 mph84%29.80 "HgN/A
6:30 AM81 °FScattered clouds.7 mph89%29.80 "Hg5 mi
6:00 AM81 °FScattered clouds.7 mph89%29.80 "Hg5 mi
5:30 AM81 °FPassing clouds.7 mph89%29.80 "Hg4 mi
5:00 AM81 °FPassing clouds.6 mph89%29.77 "Hg4 mi
4:00 AM81 °FPassing clouds.6 mph89%29.77 "Hg4 mi
3:30 AM81 °FPassing clouds.7 mph89%29.77 "Hg5 mi
3:00 AM81 °FPassing clouds.8 mph89%29.77 "Hg5 mi
2:30 AM81 °FPassing clouds.9 mph89%29.77 "Hg5 mi
2:00 AM81 °FPassing clouds.8 mph89%29.77 "Hg5 mi
1:30 AM81 °FPassing clouds.10 mph89%29.77 "Hg5 mi
1:00 AM82 °FPassing clouds.10 mph84%29.77 "Hg5 mi
12:30 AM82 °FPassing clouds.10 mph84%29.80 "Hg5 mi
12:00 AM82 °FPassing clouds.9 mph84%29.80 "Hg5 mi
11:30 PM
Wed, Jul 1
82 °FPassing clouds.10 mph84%29.80 "Hg5 mi
11:00 PM82 °FPassing clouds.12 mph84%29.80 "Hg5 mi
10:30 PM82 °FPassing clouds.9 mph79%29.83 "Hg5 mi
10:00 PM82 °FPassing clouds.9 mph79%29.83 "Hg5 mi
9:30 PM82 °FPassing clouds.7 mph79%29.80 "Hg5 mi
9:00 PM82 °FPassing clouds.3 mph74%29.80 "Hg5 mi
8:30 PM79 °FPassing clouds.2 mph79%29.80 "Hg5 mi
8:00 PM81 °FPassing clouds.No wind79%29.77 "Hg5 mi
7:30 PM79 °FPassing clouds.No wind79%29.77 "Hg5 mi
7:00 PM77 °FLight rain. Partly cloudy.2 mph79%29.77 "Hg5 mi
6:30 PM75 °FThunderstorms. Partly cloudy.8 mph83%29.77 "Hg5 mi
6:00 PM84 °FSprinkles. Broken clouds.13 mph62%29.80 "HgN/A
5:30 PM88 °FScattered clouds.5 mph66%29.74 "HgN/A
5:00 PM86 °FScattered clouds.2 mph70%29.71 "HgN/A
4:30 PM86 °FScattered clouds.3 mph70%29.71 "HgN/A
4:00 PM86 °FScattered showers. Scattered clouds.13 mph70%29.71 "HgN/A
3:30 PM90 °FScattered showers. Scattered clouds.12 mph59%29.71 "HgN/A
3:00 PM93 °FScattered clouds.12 mph56%29.71 "HgN/A
2:30 PM90 °FScattered clouds.15 mph59%29.74 "HgN/A
2:00 PM91 °FScattered clouds.13 mph63%29.74 "HgN/A
1:30 PM86 °FScattered clouds.10 mph62%29.77 "HgN/A
1:00 PM91 °FScattered clouds.14 mph56%29.77 "HgN/A
12:30 PM91 °FScattered clouds.13 mph59%29.80 "HgN/A
12:00 PM91 °FPartly sunny.12 mph56%29.80 "HgN/A
11:30 AM91 °FScattered clouds.10 mph59%29.83 "HgN/A
11:00 AM90 °FScattered clouds.13 mph63%29.83 "HgN/A
10:30 AM90 °FScattered clouds.13 mph63%29.83 "HgN/A
10:00 AM88 °FScattered clouds.10 mph66%29.83 "HgN/A
9:30 AM86 °FScattered clouds.8 mph75%29.86 "HgN/A
9:00 AM86 °FScattered clouds.8 mph75%29.86 "HgN/A
8:30 AM86 °FScattered clouds.12 mph75%29.86 "HgN/A
8:00 AM84 °FScattered clouds.8 mph79%29.86 "HgN/A
Weather by CustomWeather, © 2015

See weather overviewHow to use our weather pages